Time,TemperatureF,DewpointF,PressureIn,WindDirection,WindDirectionDegrees,WindSpeedMPH,WindSpeedGustMPH,Humidity,HourlyPrecipIn,Conditions,Clouds,dailyrainin,SoftwareType,DateUTC
2013-05-27 00:00:00,55.8,48.0,30.21,SW,225,0.0,0.0,75,0.00,,,0.00,WUHU216HW,2013-05-27 04:00:00,
2013-05-27 00:01:00,55.8,48.0,30.21,SW,225,0.0,0.0,75,0.00,,,0.00,WUHU216HW,2013-05-27 04:01:00,
2013-05-27 00:06:00,55.8,48.0,30.21,SW,225,0.0,0.0,75,0.00,,,0.00,WUHU216HW,2013-05-27 04:06:00,
2013-05-27 03:00:00,51.8,45.9,30.21,SSE,158,0.0,0.0,80,0.00,,,0.00,WUHU216HW,2013-05-27 07:00:00,
2013-05-27 03:05:00,51.8,45.9,30.21,SSE,158,0.0,0.0,80,0.00,,,0.00,WUHU216HW,2013-05-27 07:05:00,
2013-05-27 03:10:00,51.8,45.9,30.21,SSE,158,0.0,0.0,80,0.00,,,0.00,WUHU216HW,2013-05-27 07:10:00,
2013-05-27 04:11:00,51.5,45.8,30.21,SSE,158,0.0,0.0,81,0.00,,,0.00,WUHU216HW,2013-05-27 08:11:00,
2013-05-27 04:16:00,51.5,45.8,30.21,SSE,158,0.0,0.0,81,0.00,,,0.00,WUHU216HW,2013-05-27 08:16:00,
2013-05-27 04:30:00,50.9,45.6,30.21,SSE,158,0.0,0.0,82,0.00,,,0.00,WUHU216HW,2013-05-27 08:30:00,
2013-05-27 04:35:00,50.9,45.6,30.21,SSE,158,0.0,0.0,82,0.00,,,0.00,WUHU216HW,2013-05-27 08:35:00,
2013-05-27 05:00:00,50.6,45.3,30.22,SSW,203,0.0,0.0,82,0.00,,,0.00,WUHU216HW,2013-05-27 09:00:00,
2013-05-27 05:05:00,50.6,45.3,30.22,SSW,203,0.0,0.0,82,0.00,,,0.00,WUHU216HW,2013-05-27 09:05:00,
2013-05-27 05:30:00,50.2,45.2,30.22,SW,225,0.0,0.0,83,0.00,,,0.00,WUHU216HW,2013-05-27 09:30:00,
2013-05-27 05:35:00,50.2,45.2,30.22,SW,225,0.0,0.0,83,0.00,,,0.00,WUHU216HW,2013-05-27 09:35:00,
2013-05-27 06:00:00,50.0,45.0,30.23,SW,225,0.0,0.0,83,0.00,,,0.00,WUHU216HW,2013-05-27 10:00:00,
2013-05-27 06:05:00,50.0,45.0,30.23,SW,225,0.0,0.0,83,0.00,,,0.00,WUHU216HW,2013-05-27 10:05:00,
2013-05-27 06:30:00,50.2,45.2,30.24,SW,225,0.0,0.0,83,0.00,,,0.00,WUHU216HW,2013-05-27 10:30:00,
2013-05-27 06:35:00,50.2,45.2,30.24,SW,225,0.0,0.0,83,0.00,,,0.00,WUHU216HW,2013-05-27 10:35:00,
2013-05-27 07:00:00,50.8,45.7,30.24,SSW,203,0.0,0.0,83,0.00,,,0.00,WUHU216HW,2013-05-27 11:00:00,
2013-05-27 07:05:00,50.8,45.7,30.24,SSW,203,0.0,0.0,83,0.00,,,0.00,WUHU216HW,2013-05-27 11:05:00,
2013-05-27 07:30:00,52.6,47.9,30.25,SSW,203,0.0,0.0,84,0.00,,,0.00,WUHU216HW,2013-05-27 11:30:00,
2013-05-27 07:35:00,52.6,47.9,30.25,SSW,203,0.0,0.0,84,0.00,,,0.00,WUHU216HW,2013-05-27 11:35:00,
2013-05-27 08:00:00,55.3,50.5,30.25,ENE,68,0.0,0.0,84,0.00,,,0.00,WUHU216HW,2013-05-27 12:00:00,
2013-05-27 08:05:00,55.3,50.5,30.25,ENE,68,0.0,0.0,84,0.00,,,0.00,WUHU216HW,2013-05-27 12:05:00,
2013-05-27 08:30:00,59.6,54.5,30.26,NE,45,0.2,0.2,83,0.00,,,0.00,WUHU216HW,2013-05-27 12:30:00,
2013-05-27 08:35:00,59.6,54.5,30.26,NE,45,0.2,0.2,83,0.00,,,0.00,WUHU216HW,2013-05-27 12:35:00,
2013-05-27 09:00:00,64.1,56.0,30.26,ESE,113,0.0,0.0,75,0.00,,,0.00,WUHU216HW,2013-05-27 13:00:00,
2013-05-27 09:05:00,64.1,56.0,30.26,ESE,113,0.0,0.0,75,0.00,,,0.00,WUHU216HW,2013-05-27 13:05:00,
2013-05-27 10:00:00,72.4,57.3,30.27,SE,135,0.0,0.0,59,0.00,,,0.00,WUHU216HW,2013-05-27 14:00:00,
2013-05-27 10:05:00,72.4,57.3,30.27,SE,135,0.0,0.0,59,0.00,,,0.00,WUHU216HW,2013-05-27 14:05:00,
2013-05-27 13:00:00,80.8,52.8,30.24,East,90,0.4,0.4,38,0.00,,,0.00,WUHU216HW,2013-05-27 17:00:00,
2013-05-27 13:05:00,81.0,52.2,30.24,ESE,113,0.4,0.4,37,0.00,,,0.00,WUHU216HW,2013-05-27 17:05:00,
2013-05-27 17:00:00,88.6,55.6,30.19,SW,225,1.3,1.3,33,0.00,,,0.00,WUHU216HW,2013-05-27 21:00:00,
2013-05-27 17:05:00,88.6,55.6,30.19,SSW,203,0.9,1.3,33,0.00,,,0.00,WUHU216HW,2013-05-27 21:05:00,
2013-05-27 17:10:00,88.6,55.6,30.19,SSW,203,0.9,0.9,33,0.00,,,0.00,WUHU216HW,2013-05-27 21:10:00,
2013-05-27 17:30:00,89.1,56.9,30.17,WSW,248,1.3,1.3,34,0.00,,,0.00,WUHU216HW,2013-05-27 21:30:00,
2013-05-27 17:35:00,89.1,56.9,30.17,WSW,248,1.3,1.3,34,0.00,,,0.00,WUHU216HW,2013-05-27 21:35:00,
2013-05-27 19:00:00,91.1,59.4,30.17,SW,225,0.0,0.0,35,0.00,,,0.00,WUHU216HW,2013-05-27 23:00:00,
2013-05-27 19:05:00,91.1,59.4,30.17,SW,225,0.0,0.0,35,0.00,,,0.00,WUHU216HW,2013-05-27 23:05:00,
2013-05-27 19:10:00,91.1,59.4,30.17,SW,225,0.0,0.0,35,0.00,,,0.00,WUHU216HW,2013-05-27 23:10:00,
2013-05-27 20:30:00,75.8,59.0,30.19,SW,225,0.0,0.0,56,0.00,,,0.00,WUHU216HW,2013-05-28 00:30:00,
2013-05-27 20:35:00,75.8,59.0,30.19,SW,225,0.0,0.0,56,0.00,,,0.00,WUHU216HW,2013-05-28 00:35:00,
2013-05-27 21:00:00,73.4,58.7,30.20,SE,135,0.2,0.2,60,0.00,,,0.00,WUHU216HW,2013-05-28 01:00:00,
2013-05-27 21:05:00,73.4,58.7,30.20,SE,135,0.2,0.2,60,0.00,,,0.00,WUHU216HW,2013-05-28 01:05:00,
2013-05-27 21:30:00,71.6,58.3,30.21,South,180,0.0,0.0,63,0.00,,,0.00,WUHU216HW,2013-05-28 01:30:00,
2013-05-27 21:35:00,71.6,58.3,30.21,South,180,0.0,0.0,63,0.00,,,0.00,WUHU216HW,2013-05-28 01:35:00,
2013-05-27 23:00:00,68.4,58.3,30.20,SSW,203,1.6,1.6,70,0.00,,,0.00,WUHU216HW,2013-05-28 03:00:00,
2013-05-27 23:05:00,68.4,58.3,30.20,SSW,203,1.6,1.6,70,0.00,,,0.00,WUHU216HW,2013-05-28 03:05:00,
2013-05-27 23:30:00,67.7,58.0,30.21,SW,225,0.0,0.0,71,0.00,,,0.00,WUHU216HW,2013-05-28 03:30:00,
2013-05-27 23:35:00,67.7,58.0,30.21,SW,225,0.0,0.0,71,0.00,,,0.00,WUHU216HW,2013-05-28 03:35:00,